Current weather by "City, St" or "zip code"  
 

Current Conditions: Fort Collins/Loveland - Northern Colorado Regional Airport, CO

Fair


39.0 F

Last Updated on Oct 31 2020, 3:56 am MDT
Humidity: 73%
Wind Speed: E 13.8 mph
Barometer 29.94 in
Dewpoint: 30.9 F
Visibility: 10.00 mi
Precip: --
Heat Index: NA
Wind Chill: 31 F
Current conditions at:

Fort Collins/Loveland - Northern Colorado Regional Airport, CO (KFNL)

Lat: 40.45 Lon: 105.01667

Local Radar Image active severe weather and emergency alerts image image weather storm and storm spotter reports image weather observation monitoring service image
Local
Radar
Active
Alerts
Storm Reports Obs
Monitoring

Sign-up For Email & Text Message Weather Alert Notification Services



Advertise Here

Observation History for Fort Collins/Loveland - Northern Colorado Regional Airport, CO


Time Wind
(mph)
Vis
(mi)
Weather Precip (in) Temperature (F) Relative
Humidity
Wind
Chill
(F)
Heat
Index
(F)
Pressure
Air Dwpt altimeter
(in)
sea level
(mb)
Rmks
3:56 am MDT E 13.8 10.00 Fair -- 39.0 30.9 73% 31 NA 29.94 1011.1
2:56 am MDT NE 9.2 10.00 Fair -- 38.0 30.0 73% 32 NA 29.93 1010.6
1:56 am MDT N 0.0 10.00 Fair -- 36.0 30.0 79% NA NA 29.93 1011.0
12:56 am MDT NE 11.5 10.00 Fair -- 38.0 28.9 70% 31 NA 29.92 1010.9
11:56 pm MDT N 5.8 10.00 Fair -- 38.0 30.9 76% 34 NA 29.94 1011.9
10:56 pm MDT NE 6.9 10.00 Fair -- 40.0 30.9 70% 35 NA 29.95 1012.8
9:56 pm MDT N 10.4 10.00 Fair -- 42.0 32.0 68% 36 NA 29.96 1013.9
8:56 pm MDT N 0.0 10.00 Fair -- 45.0 33.1 63% NA NA 29.97 1014.4
7:56 pm MDT NW 3.5 10.00 Fair -- 41.0 32.0 70% NA NA 29.99 1016.1
6:56 pm MDT N 0.0 10.00 Fair -- 50.0 33.1 52% NA NA 30.00 1015.4
5:56 pm MDT NE 5.8 10.00 Fair -- 53.0 35.1 51% 51 NA 30.00 1014.5
4:56 pm MDT N 6.9 10.00 Fair -- 62.0 37.0 40% 62 NA 30.01 1014.5
3:56 pm MDT S 6.9 10.00 Fair -- 65.0 30.9 28% NA NA 30.02 1014.3
2:56 pm MDT S 8.1 10.00 Fair -- 65.0 30.9 28% NA NA 30.05 1014.8
1:56 pm MDT S 3.5 10.00 Fair -- 64.0 34.0 33% NA NA 30.08 1016.2
12:56 pm MDT N 0.0 10.00 Fair -- 59.0 32.0 36% NA NA 30.13 1018.5
11:56 am MDT N 0.0 10.00 Fair -- 57.0 33.1 41% NA NA 30.18 1020.2
10:56 am MDT N 0.0 10.00 Fair -- 51.0 34.0 52% NA NA 30.21 1021.8
9:56 am MDT N 3.5 10.00 Fair -- 42.0 34.0 73% NA NA 30.23 1023.8
8:56 am MDT N 0.0 10.00 Fair -- 34.0 30.9 89% NA NA 30.24 1024.5
7:56 am MDT N 0.0 10.00 Fair -- 30.0 27.0 88% NA NA 30.23 1024.0
6:56 am MDT NW 3.5 10.00 Fair -- 29.0 26.1 89% NA NA 30.22 1024.1
5:56 am MDT NE 4.6 10.00 Fair -- 36.0 27.0 70% 32 NA 30.22 1022.5
4:56 am MDT E 3.5 10.00 Fair -- 34.0 28.0 79% NA NA 30.21 1021.9

Regional Weather Observation


Erie Municipal Airport, CO (KEIK)

Fair
46.0 F

Boulder Municipal Airport, CO (KBDU)

Fair
55.0 F

Greeley, Greeley-Weld County Airport, CO (KGXY)

Fair
28.0 F

Cheyenne, Cheyenne Airport, WY (KCYS)

Fair
50.0 F

Laramie Regional Airport, WY (KLAR)

Fair and Windy
39.0 F

Walden-Jackson County Airport, CO (K33V)

Fair
36.0 F